{"data":{"norad_id":64092,"intl_designator":"2025-108F","name":"2025-108F","alt_names":[],"object_type":"PAYLOAD","status":"ACTIVE","operator":null,"country":"PRC","launch_date":"2025-05-21","launch_site_code":"JSC","launch_vehicle":null,"mission":null,"orbit_class":"UNKNOWN","rcs_meters":null,"size_class":null,"mass_kg":null,"dimensions":null,"purposes":[],"wikipedia_slug":null,"has_3d_model":false,"image_url":null,"decayed_at":null,"tle_current":{"epoch":"2026-05-25T04:50:58.972416Z","epoch_age_seconds":54029,"freshness":"FRESH","line1":"1 64092U 25108F   26145.20207144  .00018264  00000+0  69684-3 0  9991","line2":"2 64092  97.4695 222.8827 0013071  87.8132 272.4603 15.26641650 55993","mean_motion":15.2664165,"eccentricity":0.0013071,"inclination_deg":97.4695,"raan_deg":222.8827,"arg_perigee_deg":87.8132,"mean_anomaly_deg":272.4603,"bstar":0.00069684,"rev_number":5599,"period_min":94.324689752831,"perigee_km":476.88836173063,"apogee_km":494.83222345292,"semimajor_km":6863.9972925918,"source":"CELESTRAK","updated_at":"2026-05-25T13:38:04.236274Z"}}}